Location: Ariel
(45.9570°N, 122.5700°W)
Time: 18:48:51
(UTC-07:00)

Transit 2A Rocket - All Passes

Search period start: 18 August 2019 00:00
Search period end: 28 August 2019 00:00
Orbit: 590 x 913 km, 66.7° (Epoch: 16 August)

Date Brightness Start Highest point End Pass type
(mag) Time Alt. Az. Time Alt. Az. Time Alt. Az.
18 Aug - 04:05:56 10° N 04:08:27 14° NNE 04:10:53 10° ENE visible
18 Aug - 05:47:23 10° NNW 05:52:04 65° NE 05:56:24 10° SE daylight
18 Aug - 07:31:24 10° WNW 07:33:58 15° WSW 07:36:26 10° SW daylight
18 Aug - 20:23:37 10° S 20:28:43 32° ESE 20:33:30 10° NE daylight
18 Aug - 22:05:39 10° SW 22:11:11 48° NW 22:16:19 10° NNE visible
18 Aug - 23:52:28 10° WNW 23:55:00 13° NNW 23:57:27 10° N visible
19 Aug - 03:24:42 10° NNE 03:25:22 10° NNE 03:26:02 10° NNE visible
19 Aug - 05:04:59 10° NNW 05:09:24 39° NE 05:13:32 10° ESE visible
19 Aug - 06:47:56 10° NW 06:51:46 27° WSW 06:55:24 10° SSW daylight
19 Aug - 19:42:22 10° SSE 19:46:25 20° ESE 19:50:17 10° ENE daylight
19 Aug - 21:22:47 10° SW 21:28:34 74° NW 21:33:54 10° NNE visible
19 Aug - 23:08:16 10° WNW 23:12:00 18° NW 23:15:31 10° N visible
20 Aug - 04:22:43 10° NNW 04:26:38 25° NE 04:30:19 10° E visible
20 Aug - 06:05:02 10° NW 06:09:27 48° WSW 06:13:37 10° S daylight
20 Aug - 19:02:29 10° ESE 19:04:14 11° ESE 19:05:56 10° E daylight
20 Aug - 20:40:16 10° SSW 20:46:02 71° ESE 20:51:23 10° NE visible
20 Aug - 22:24:30 10° W 22:29:05 25° NW 22:33:24 10° NNE visible
21 Aug - 03:40:35 10° N 03:43:45 17° NE 03:46:44 10° ENE visible
21 Aug - 05:22:22 10° NW 05:27:01 87° WSW 05:31:22 10° SSE visible
21 Aug - 19:58:09 10° S 20:03:36 44° ESE 20:08:41 10° NE daylight
21 Aug - 21:41:06 10° WSW 21:46:18 36° NW 21:51:08 10° NNE visible
21 Aug - 23:29:09 10° NW 23:30:22 11° NNW 23:31:35 10° NNW visible
22 Aug - 02:58:44 10° N 03:00:43 12° NNE 03:02:40 10° NE visible
22 Aug - 04:39:54 10° NNW 04:44:28 54° NE 04:48:45 10° SE visible
22 Aug - 06:23:27 10° WNW 06:26:31 18° WSW 06:29:30 10° SSW daylight
22 Aug - 19:16:29 10° SSE 19:21:15 27° ESE 19:25:45 10° NE daylight
22 Aug - 20:58:01 10° SW 21:03:37 55° NW 21:08:48 10° NNE visible
22 Aug - 22:44:22 10° WNW 22:47:17 14° NNW 22:50:06 10° N visible
23 Aug - 03:57:32 10° NNW 04:01:47 33° NE 04:05:45 10° ESE visible
23 Aug - 05:40:14 10° NW 05:44:17 32° WSW 05:48:09 10° S visible
23 Aug - 18:35:33 10° SE 18:39:00 16° ESE 18:42:18 10° ENE daylight
23 Aug - 20:15:16 10° SSW 20:21:02 86° WNW 20:26:21 10° NNE daylight
23 Aug - 22:00:19 10° W 22:04:19 20° NW 22:08:06 10° N visible
24 Aug - 03:15:19 10° NNW 03:18:58 22° NE 03:22:25 10° E visible
24 Aug - 04:57:26 10° NW 05:01:57 59° WSW 05:06:11 10° SSE visible
24 Aug - 19:32:52 10° SSW 19:38:33 60° ESE 19:43:47 10° NE daylight
24 Aug - 21:16:41 10° WSW 21:21:27 28° NW 21:25:55 10° NNE visible
25 Aug - 02:33:16 10° N 02:36:02 15° NNE 02:38:41 10° ENE visible
25 Aug - 04:14:51 10° NNW 04:19:28 78° NE 04:23:48 10° SE visible
25 Aug - 05:59:31 10° W 06:01:14 12° WSW 06:02:56 10° SW daylight
25 Aug - 18:50:54 10° S 18:56:08 37° ESE 19:01:01 10° NE daylight
25 Aug - 20:33:22 10° WSW 20:38:43 41° NW 20:43:39 10° NNE visible
25 Aug - 22:20:47 10° NW 22:22:38 12° NNW 22:24:26 10° N visible
26 Aug - 01:51:41 10° N 01:52:59 11° NNE 01:54:15 10° NE visible
26 Aug - 03:32:24 10° NNW 03:36:52 45° NE 03:41:02 10° ESE visible
26 Aug - 05:15:36 10° WNW 05:19:04 22° WSW 05:22:25 10° SSW visible
26 Aug - 18:09:26 10° SSE 18:13:49 23° ESE 18:17:57 10° ENE daylight
26 Aug - 19:50:24 10° SW 19:56:04 64° NW 20:01:16 10° NNE daylight
26 Aug - 21:36:20 10° WNW 21:39:35 16° NW 21:42:42 10° N visible
27 Aug - 02:50:06 10° NNW 02:54:08 28° NE 02:57:56 10° ESE visible
27 Aug - 04:32:34 10° NW 04:36:47 39° WSW 04:40:49 10° S visible
27 Aug - 17:28:56 10° SE 17:31:35 13° ESE 17:34:09 10° ENE daylight
27 Aug - 19:07:46 10° SSW 19:13:31 82° ESE 19:18:47 10° NE daylight
27 Aug - 20:52:25 10° W 20:56:40 22° NW 21:00:38 10° N visible
